• en France
  • Liste des pays
  • À 7 jours
  • Température de l'eau
  • Carte satellitaire
  • Carte météo
  • Widgets météo
  • user-avatar
    Se connecter

    Météo par heure à Newcastle

    Ce jour, 21 Novembre, Mardi

    Heure Température Précipitation Vent Pression Humidité
    00:00 +11°C° 0 mm 3 m/s 744 mmHg 96%
    01:00 +11°C° 0,1 mm 4 m/s 744 mmHg 94%
    02:00 +12°C° 0,1 mm 4 m/s 743 mmHg 93%
    03:00 +12°C° 0,1 mm 5 m/s 743 mmHg 92%
    04:00 +12°C° 0 mm 5 m/s 743 mmHg 92%
    05:00 +12°C° 0 mm 5 m/s 743 mmHg 91%
    06:00 +12°C° 0 mm 5 m/s 743 mmHg 91%
    07:00 +12°C° 0 mm 5 m/s 742 mmHg 91%
    08:00 +12°C° 0 mm 5 m/s 742 mmHg 91%
    09:00 +10°C° 0 mm 5 m/s 742 mmHg 90%
    10:00 +12°C° 0 mm 5 m/s 742 mmHg 88%
    11:00 +12°C° 0 mm 5 m/s 742 mmHg 85%
    12:00 +11°C° 0 mm 6 m/s 742 mmHg 82%
    13:00 +12°C° 0 mm 5 m/s 741 mmHg 83%
    14:00 +12°C° 0 mm 5 m/s 741 mmHg 83%
    15:00 +12°C° 0 mm 5 m/s 740 mmHg 84%
    16:00 +12°C° 0,3 mm 5 m/s 740 mmHg 85%
    17:00 +11°C° 0,3 mm 6 m/s 739 mmHg 86%
    18:00 +11°C° 0,3 mm 7 m/s 738 mmHg 88%
    19:00 +11°C° 0,5 mm 7 m/s 738 mmHg 88%
    20:00 +11°C° 0,5 mm 7 m/s 737 mmHg 89%
    21:00 +12°C° 0,5 mm 7 m/s 737 mmHg 89%
    22:00 +13°C° 0,6 mm 6 m/s 737 mmHg 90%
    23:00 +13°C° 0,6 mm 6 m/s 737 mmHg 90%

    Demain, 22 Novembre, Mercredi

    Heure Température Précipitation Vent Pression Humidité
    00:00 +13°C° 0,6 mm 6 m/s 736 mmHg 90%
    01:00 +13°C° 0,5 mm 6 m/s 736 mmHg 90%
    02:00 +11°C° 0,5 mm 6 m/s 736 mmHg 90%
    03:00 +11°C° 0,5 mm 6 m/s 735 mmHg 90%
    04:00 +11°C° 0,2 mm 6 m/s 735 mmHg 89%
    05:00 +11°C° 0,2 mm 7 m/s 734 mmHg 87%
    06:00 +11°C° 0,2 mm 7 m/s 734 mmHg 86%
    07:00 +11°C° 0,1 mm 7 m/s 734 mmHg 86%
    08:00 +11°C° 0,1 mm 7 m/s 733 mmHg 86%
    09:00 +11°C° 0,1 mm 7 m/s 733 mmHg 85%
    10:00 +12°C° 0,1 mm 8 m/s 732 mmHg 84%
    11:00 +12°C° 0,1 mm 9 m/s 731 mmHg 83%
    12:00 +12°C° 0,1 mm 9 m/s 730 mmHg 81%
    13:00 +12°C° 0,1 mm 10 m/s 729 mmHg 79%
    14:00 +12°C° 0,1 mm 10 m/s 728 mmHg 77%
    15:00 +12°C° 0,1 mm 11 m/s 727 mmHg 75%
    16:00 +12°C° 0,2 mm 11 m/s 727 mmHg 76%
    17:00 +12°C° 0,2 mm 11 m/s 726 mmHg 78%
    18:00 +12°C° 0,2 mm 11 m/s 726 mmHg 80%
    19:00 +12°C° 0,1 mm 10 m/s 725 mmHg 80%
    20:00 +12°C° 0,1 mm 10 m/s 725 mmHg 80%
    21:00 +12°C° 0,1 mm 9 m/s 725 mmHg 80%
    22:00 +12°C° 0,6 mm 9 m/s 724 mmHg 82%
    23:00 +12°C° 0,6 mm 9 m/s 724 mmHg 83%

    Après-demain, 23 Novembre, Jeudi

    Heure Température Précipitation Vent Pression Humidité
    00:00 +12°C° 0,6 mm 8 m/s 724 mmHg 84%
    01:00 +11°C° 0,2 mm 8 m/s 724 mmHg 84%
    02:00 +11°C° 0,2 mm 7 m/s 724 mmHg 85%
    03:00 +11°C° 0,2 mm 7 m/s 724 mmHg 85%
    04:00 +11°C° 0,1 mm 7 m/s 725 mmHg 84%
    05:00 +11°C° 0,1 mm 7 m/s 726 mmHg 84%
    06:00 +11°C° 0,1 mm 7 m/s 726 mmHg 83%
    07:00 +10°C° 0,3 mm 7 m/s 727 mmHg 82%
    08:00 +10°C° 0,3 mm 7 m/s 729 mmHg 81%
    09:00 +9°C° 0,3 mm 7 m/s 730 mmHg 80%
    10:00 +9°C° 0 mm 7 m/s 731 mmHg 75%
    11:00 +9°C° 0 mm 6 m/s 732 mmHg 69%
    12:00 +8°C° 0 mm 6 m/s 733 mmHg 64%
    13:00 +8°C° 0 mm 6 m/s 733 mmHg 66%
    14:00 +8°C° 0 mm 5 m/s 733 mmHg 67%
    15:00 +8°C° 0 mm 5 m/s 734 mmHg 69%
    16:00 +8°C° 0,3 mm 6 m/s 733 mmHg 74%
    17:00 +8°C° 0,3 mm 6 m/s 733 mmHg 79%
    18:00 +8°C° 0,3 mm 7 m/s 732 mmHg 84%
    19:00 +8°C° 0,4 mm 7 m/s 733 mmHg 81%
    20:00 +6°C° 0,4 mm 7 m/s 733 mmHg 78%
    21:00 +7°C° 0,4 mm 6 m/s 734 mmHg 76%
    22:00 +7°C° 0 mm 6 m/s 734 mmHg 75%
    23:00 +7°C° 0 mm 6 m/s 735 mmHg 74%

    24 Novembre, Vendredi

    Heure Température Précipitation Vent Pression Humidité
    00:00 +5°C° 0 mm 7 m/s 736 mmHg 73%
    01:00 +5°C° 0 mm 6 m/s 736 mmHg 74%
    02:00 +6°C° 0 mm 5 m/s 736 mmHg 74%
    03:00 +6°C° 0 mm 4 m/s 737 mmHg 75%
    04:00 +6°C° 0 mm 4 m/s 737 mmHg 76%
    05:00 +5°C° 0 mm 3 m/s 737 mmHg 77%
    06:00 +6°C° 0 mm 2 m/s 737 mmHg 78%
    07:00 +6°C° 0 mm 2 m/s 738 mmHg 79%
    08:00 +6°C° 0 mm 2 m/s 738 mmHg 80%
    09:00 +6°C° 0 mm 2 m/s 739 mmHg 81%
    10:00 +6°C° 0 mm 2 m/s 739 mmHg 78%
    11:00 +7°C° 0 mm 2 m/s 740 mmHg 74%
    12:00 +8°C° 0 mm 2 m/s 740 mmHg 71%
    13:00 +7°C° 0 mm 2 m/s 740 mmHg 72%
    14:00 +7°C° 0 mm 2 m/s 740 mmHg 73%
    15:00 +8°C° 0 mm 1 m/s 740 mmHg 74%
    16:00 +6°C° 0 mm 2 m/s 741 mmHg 76%
    17:00 +5°C° 0 mm 2 m/s 741 mmHg 78%
    18:00 +5°C° 0 mm 2 m/s 741 mmHg 81%
    19:00 +5°C° 0,1 mm 2 m/s 741 mmHg 80%
    20:00 +4°C° 0,1 mm 3 m/s 741 mmHg 80%
    21:00 +4°C° 0,1 mm 3 m/s 741 mmHg 80%
    22:00 +4°C° 0,9 mm 4 m/s 740 mmHg 82%
    23:00 +3°C° 0,9 mm 5 m/s 739 mmHg 83%

    25 Novembre, Samedi

    Heure Température Précipitation Vent Pression Humidité
    00:00 +3°C° 0,9 mm 6 m/s 738 mmHg 84%
    01:00 +3°C° 2,7 mm 6 m/s 736 mmHg 86%
    02:00 +3°C° 2,7 mm 6 m/s 735 mmHg 88%
    03:00 +3°C° 2,7 mm 7 m/s 734 mmHg 90%
    04:00 +3°C° 3,1 mm 7 m/s 733 mmHg 90%
    05:00 +2°C° 3,1 mm 8 m/s 732 mmHg 90%
    06:00 +2°C° 3,1 mm 8 m/s 731 mmHg 90%
    07:00 +1°C° 2,2 mm 10 m/s 732 mmHg 88%
    08:00 -1°C° 2,2 mm 11 m/s 732 mmHg 87%
    09:00 -1°C° 2,2 mm 12 m/s 733 mmHg 85%
    10:00 -2°C° 0,9 mm 11 m/s 735 mmHg 85%
    11:00 -1°C° 0,9 mm 9 m/s 736 mmHg 84%
    12:00 -1°C° 0,9 mm 8 m/s 738 mmHg 84%
    13:00 -1°C° 0,1 mm 7 m/s 739 mmHg 83%
    14:00 0°C° 0,1 mm 7 m/s 741 mmHg 82%
    15:00 +1°C° 0,1 mm 6 m/s 743 mmHg 81%
    16:00 -1°C° 0,1 mm 6 m/s 744 mmHg 81%
    17:00 -1°C° 0,1 mm 6 m/s 745 mmHg 81%
    18:00 -1°C° 0,1 mm 6 m/s 746 mmHg 80%
    19:00 -1°C° 0,1 mm 6 m/s 746 mmHg 80%
    20:00 0°C° 0,1 mm 5 m/s 747 mmHg 79%
    21:00 -1°C° 0,1 mm 5 m/s 748 mmHg 79%
    22:00 -2°C° 0,2 mm 6 m/s 748 mmHg 79%
    23:00 -2°C° 0,2 mm 6 m/s 749 mmHg 80%

    26 Novembre, Dimanche

    Heure Température Précipitation Vent Pression Humidité
    00:00 -2°C° 0,2 mm 6 m/s 750 mmHg 80%
    01:00 -2°C° 0,1 mm 6 m/s 750 mmHg 80%
    02:00 -2°C° 0,1 mm 6 m/s 750 mmHg 80%
    03:00 -2°C° 0,1 mm 6 m/s 751 mmHg 80%
    04:00 -1°C° 0 mm 5 m/s 751 mmHg 81%
    05:00 -1°C° 0 mm 5 m/s 752 mmHg 81%
    06:00 -1°C° 0 mm 5 m/s 752 mmHg 81%
    07:00 -1°C° 0 mm 5 m/s 753 mmHg 81%
    08:00 -1°C° 0 mm 5 m/s 753 mmHg 81%
    09:00 -1°C° 0 mm 5 m/s 754 mmHg 81%
    10:00 0°C° 0 mm 5 m/s 754 mmHg 81%
    11:00 +1°C° 0 mm 5 m/s 754 mmHg 81%
    12:00 +1°C° 0 mm 5 m/s 755 mmHg 81%
    13:00 +2°C° 0 mm 5 m/s 754 mmHg 82%
    14:00 +3°C° 0 mm 4 m/s 754 mmHg 83%
    15:00 +3°C° 0 mm 4 m/s 754 mmHg 84%
    16:00 +3°C° 0 mm 4 m/s 754 mmHg 85%
    17:00 +3°C° 0 mm 4 m/s 754 mmHg 86%
    18:00 +1°C° 0 mm 4 m/s 754 mmHg 87%
    19:00 +3°C° 0,1 mm 4 m/s 754 mmHg 87%
    20:00 +2°C° 0,1 mm 5 m/s 754 mmHg 88%
    21:00 +2°C° 0,1 mm 5 m/s 754 mmHg 88%
    22:00 +2°C° 0 mm 5 m/s 753 mmHg 88%
    23:00 +2°C° 0 mm 5 m/s 753 mmHg 88%
    Voir plus